Weather Roundup
Issued by NWS Corpus Christi, TX

Home | Current Version | Previous Version | Text Only | Print | Product List | Glossary On
Versions: 1 2 3 4 5 6 7 8 9 10 11 12 13 14 15 16 17 18 19 20 21 22 23 24 25 26 27 28 29 30 31 32 33 34 35 36 37 38 39 40 41 42 43 44 45 46 47 48 49 50
000
ASUS44 KCRP 300610
HRRCRP

SOUTH TEXAS REGIONAL WEATHER ROUNDUP
NATIONAL WEATHER SERVICE CORPUS CHRISTI TX
100 AM CDT SAT AUG 30 2014


TXZ229>244-300700-
...CORPUS CHRISTI AREA OBSERVATIONS...

CITY           SKY/WX    TMP DP  RH WIND       PRES   REMARKS
CORPUS CHRISTI FAIR      79  76  90 S6        29.88R
NAS CORPUS CHR FAIR      83  78  85 SE12      29.87S HX  93
ROCKPORT       FAIR      82  76  81 SE9       29.88S
KINGSVILLE NAS FAIR      78  78 100 NE3       29.89R
ALICE          FAIR      77  75  93 CALM      29.89R
FALFURRIAS     FAIR      70  67  91 SE3       29.87S
$$

...VICTORIA AREA OBSERVATIONS...

CITY           SKY/WX    TMP DP  RH WIND       PRES   REMARKS
VICTORIA       FAIR      78  75  90 NE5       29.91S
BEEVILLE       FAIR      77  75  93 E5        29.90S
PLEASANTON     FAIR      80  70  71 E5        29.92R
SAN ANTONIO    MOCLDY    80  72  76 SE13      29.93S
$$

...LAREDO AREA OBSERVATIONS...

CITY           SKY/WX    TMP DP  RH WIND       PRES   REMARKS
LAREDO         FAIR      82  71  69 SE14      29.91R
COTULLA        FAIR      82  71  69 SE13      29.89S
DEL RIO        FAIR      89  67  47 SE15      29.87S HX  92
MCALLEN        FAIR      79  77  94 E6        29.87F
HEBBRONVILLE   FAIR      77  73  85 SE5       29.91R
$$

...OTHER TEXAS OBSERVATIONS...

CITY           SKY/WX    TMP DP  RH WIND       PRES   REMARKS
BROWNSVILLE    MOCLDY    82  79  90 SE5       29.87S HX  92
HOUSTON        MOCLDY    75  73  94 E5        29.91F
COL. STATION   FAIR      76  70  82 SE8       29.93S
AUSTIN         FAIR      74  71  91 CALM      29.93R
WACO           FAIR      77  70  79 SE7       29.93R
FORT WORTH     FAIR      81  71  71 S8        29.92S
WICHITA FALLS  FAIR      74  69  85 CALM      29.93S
LUBBOCK        FAIR      72  66  81 S10       30.03F
EL PASO        PTCLDY    78  50  37 CALM      30.01S
$$

...MARINE OBSERVATIONS...

STATION/POSITION TIME  SKY/WX   TEMP    WIND        PRES    VSBY  WAVE   SWELL
                                AIR SEA DIR/SP/G                  HT/PER HT/PER
                 (UTC)          (F)     (DEG/KT/KT) (MB)    (MI)  (FT/S) (FT/S)
PORT ARANSAS     0600            83 84  120/ 11/ 13 1012.3R
BUOY 90 E PORT A 0600            84 86  150/ 14/ 16 1012.0R         4/ 7   3/ 7
BUOY 45 SE BAFFI 0600            84 85  140/ 14/ 16 1010.8F         4/ 8   3/ 8
BUOY 200 E PT IS 0600            83 86  130/ 14/ 17 1012.3R         4/ 7   3/ 7
BUOY 15 E GALVES 0600            83 85  130/ 16/ 19 1012.2R         5/ 5
$$


USA.gov is the U.S. government's official web portal to all federal, state and local government web resources and services.